Location: Unspecified
(0.0000°N, 0.0000°E)
Time: 22:26:46
(UTC+00:00)

RCM-3 - Visible Passes

Search period start: 29 April 2025 00:00
Search period end: 09 May 2025 00:00
Orbit: 589 x 591 km, 97.8° (Epoch: 29 April)

Date Brightness Start Highest point End Pass type
(mag) Time Alt. Az. Time Alt. Az. Time Alt. Az.
29 Apr ? 05:19:51 10° NE 05:23:12 24° ESE 05:26:34 10° SSE visible
29 Apr ? 19:01:29 10° WSW 19:02:28 11° WSW 19:03:27 10° W visible
30 Apr ? 05:27:28 10° NE 05:31:09 31° ESE 05:34:49 10° SSE visible
06 May ? 18:18:48 10° S 18:22:43 41° WSW 18:26:37 10° NNW visible
07 May ? 18:26:56 10° SSW 18:30:38 31° WSW 18:34:18 10° NW visible
08 May ? 04:58:20 10° E 04:59:17 11° ESE 05:00:15 10° ESE visible
08 May ? 18:35:10 10° SSW 18:38:31 24° WSW 18:41:53 10° NW visible
